Year,Month,Day,Hour,Minute,Value (Times are PST for temperature in C)
2011,04,28,00,00,4.30
2011,04,28,00,01,4.30
2011,04,28,00,02,4.30
2011,04,28,00,03,4.30
2011,04,28,00,04,4.30
2011,04,28,00,05,4.30
2011,04,28,00,06,4.30
2011,04,28,00,07,4.30
2011,04,28,00,08,4.30
2011,04,28,00,09,4.30
2011,04,28,00,10,4.30
2011,04,28,00,11,4.40
2011,04,28,00,12,4.40
2011,04,28,00,13,4.40
2011,04,28,00,14,4.50
2011,04,28,00,15,4.50
2011,04,28,00,16,4.50
2011,04,28,00,17,4.60
2011,04,28,00,18,4.60
2011,04,28,00,19,4.60
2011,04,28,00,20,4.60
2011,04,28,00,21,4.70
2011,04,28,00,22,4.70
2011,04,28,00,23,4.80
2011,04,28,00,24,4.80
2011,04,28,00,25,4.80
2011,04,28,00,26,4.90
2011,04,28,00,27,4.90
2011,04,28,00,28,4.90
2011,04,28,00,29,4.90
2011,04,28,00,30,4.90
2011,04,28,00,31,4.90
2011,04,28,00,32,4.90
2011,04,28,00,33,4.90
2011,04,28,00,34,4.90
2011,04,28,00,35,4.90
2011,04,28,00,36,5.00
2011,04,28,00,37,5.10
2011,04,28,00,38,5.10
2011,04,28,00,39,5.10
2011,04,28,00,40,5.10
2011,04,28,00,41,5.10
2011,04,28,00,42,5.10
2011,04,28,00,43,5.10
2011,04,28,00,44,5.10
2011,04,28,00,45,5.10
2011,04,28,00,46,5.20
2011,04,28,00,47,5.20
2011,04,28,00,48,5.20
2011,04,28,00,49,5.20
2011,04,28,00,50,5.20
2011,04,28,00,51,5.30
2011,04,28,00,52,5.30
2011,04,28,00,53,5.30
2011,04,28,00,54,5.30
2011,04,28,00,55,5.30
2011,04,28,00,56,5.30
2011,04,28,00,57,5.30
2011,04,28,00,58,5.30
2011,04,28,00,59,5.30
2011,04,28,01,00,5.30
2011,04,28,01,01,5.30
2011,04,28,01,02,5.30
2011,04,28,01,03,5.20
2011,04,28,01,04,5.20
2011,04,28,01,05,5.20
2011,04,28,01,06,5.20
2011,04,28,01,07,5.20
2011,04,28,01,08,5.20
2011,04,28,01,09,5.20
2011,04,28,01,10,5.20
2011,04,28,01,11,5.20
2011,04,28,01,12,5.20
2011,04,28,01,13,5.20
2011,04,28,01,14,5.20
2011,04,28,01,15,5.20
2011,04,28,01,16,5.20
2011,04,28,01,17,5.20
2011,04,28,01,18,5.30
2011,04,28,01,19,5.30
2011,04,28,01,20,5.30
2011,04,28,01,21,5.30
2011,04,28,01,22,5.30
2011,04,28,01,23,5.30
2011,04,28,01,24,5.30
2011,04,28,01,25,5.30
2011,04,28,01,26,5.30
2011,04,28,01,27,5.30
2011,04,28,01,28,5.20
2011,04,28,01,29,5.20
2011,04,28,01,30,5.20
2011,04,28,01,31,5.20
2011,04,28,01,32,5.20
2011,04,28,01,33,5.10
2011,04,28,01,34,5.10
2011,04,28,01,35,5.10
2011,04,28,01,36,5.10
2011,04,28,01,37,5.10
2011,04,28,01,38,5.10
2011,04,28,01,39,5.10
2011,04,28,01,40,5.10
2011,04,28,01,41,5.10
2011,04,28,01,42,5.10
2011,04,28,01,43,5.10
2011,04,28,01,44,5.10
2011,04,28,01,45,5.10
2011,04,28,01,46,5.10
2011,04,28,01,47,5.10
2011,04,28,01,48,5.10
2011,04,28,01,49,5.10
2011,04,28,01,50,5.10
2011,04,28,01,51,5.10
2011,04,28,01,52,5.10
2011,04,28,01,53,5.10
2011,04,28,01,54,5.10
2011,04,28,01,55,5.10
2011,04,28,01,56,5.10
2011,04,28,01,57,5.10
2011,04,28,01,58,5.10
2011,04,28,01,59,5.00
2011,04,28,02,00,4.90
2011,04,28,02,01,4.90
2011,04,28,02,02,4.90
2011,04,28,02,03,4.90
2011,04,28,02,04,4.90
2011,04,28,02,05,4.90
2011,04,28,02,06,4.90
2011,04,28,02,07,4.90
2011,04,28,02,08,4.90
2011,04,28,02,09,4.90
2011,04,28,02,10,4.90
2011,04,28,02,11,4.90
2011,04,28,02,12,4.80
2011,04,28,02,13,4.80
2011,04,28,02,14,4.80
2011,04,28,02,15,4.90
2011,04,28,02,16,4.90
2011,04,28,02,17,4.90
2011,04,28,02,18,4.90
2011,04,28,02,19,4.90
2011,04,28,02,20,4.90
2011,04,28,02,21,4.90
2011,04,28,02,22,4.90
2011,04,28,02,23,4.90
2011,04,28,02,24,4.90
2011,04,28,02,25,4.90
2011,04,28,02,26,4.90
2011,04,28,02,27,4.90
2011,04,28,02,28,4.90
2011,04,28,02,29,4.80
2011,04,28,02,30,4.80
2011,04,28,02,31,4.80
2011,04,28,02,32,4.80
2011,04,28,02,33,4.80
2011,04,28,02,34,4.90
2011,04,28,02,35,4.90
2011,04,28,02,36,4.90
2011,04,28,02,37,4.80
2011,04,28,02,38,4.80
2011,04,28,02,39,4.80
2011,04,28,02,40,4.70
2011,04,28,02,41,4.70
2011,04,28,02,42,4.70
2011,04,28,02,43,4.70
2011,04,28,02,44,4.70
2011,04,28,02,45,4.60
2011,04,28,02,46,4.60
2011,04,28,02,47,4.60
2011,04,28,02,48,4.60
2011,04,28,02,49,4.70
2011,04,28,02,50,4.70
2011,04,28,02,51,4.70
2011,04,28,02,52,4.70
2011,04,28,02,53,4.70
2011,04,28,02,54,4.70
2011,04,28,02,55,4.70
2011,04,28,02,56,4.80
2011,04,28,02,57,4.80
2011,04,28,02,58,4.80
2011,04,28,02,59,4.80
2011,04,28,03,00,4.80
2011,04,28,03,01,4.80
2011,04,28,03,02,4.90
2011,04,28,03,03,4.90
2011,04,28,03,04,4.90
2011,04,28,03,05,4.90
2011,04,28,03,06,4.90
2011,04,28,03,07,4.90
2011,04,28,03,08,4.90
2011,04,28,03,09,4.90
2011,04,28,03,10,4.90
2011,04,28,03,11,4.90
2011,04,28,03,12,4.90
2011,04,28,03,13,4.90
2011,04,28,03,14,4.90
2011,04,28,03,15,4.90
2011,04,28,03,16,4.90
2011,04,28,03,17,4.90
2011,04,28,03,18,4.90
2011,04,28,03,19,4.90
2011,04,28,03,20,4.90
2011,04,28,03,21,4.90
2011,04,28,03,22,4.90
2011,04,28,03,23,4.90
2011,04,28,03,24,4.90
2011,04,28,03,25,4.90
2011,04,28,03,26,4.90
2011,04,28,03,27,4.90
2011,04,28,03,28,4.90
2011,04,28,03,29,4.80
2011,04,28,03,30,4.80
2011,04,28,03,31,4.80
2011,04,28,03,32,4.80
2011,04,28,03,33,4.80
2011,04,28,03,34,4.80
2011,04,28,03,35,4.80
2011,04,28,03,36,4.80
2011,04,28,03,37,4.70
2011,04,28,03,38,4.70
2011,04,28,03,39,4.70
2011,04,28,03,40,4.70
2011,04,28,03,41,4.70
2011,04,28,03,42,4.60
2011,04,28,03,43,4.60
2011,04,28,03,44,4.60
2011,04,28,03,45,4.60
2011,04,28,03,46,4.60
2011,04,28,03,47,4.60
2011,04,28,03,48,4.60
2011,04,28,03,49,4.70
2011,04,28,03,50,4.70
2011,04,28,03,51,4.70
2011,04,28,03,52,4.70
2011,04,28,03,53,4.70
2011,04,28,03,54,4.70
2011,04,28,03,55,4.70
2011,04,28,03,56,4.70
2011,04,28,03,57,4.70
2011,04,28,03,58,4.70
2011,04,28,03,59,4.70
2011,04,28,04,00,4.70
2011,04,28,04,01,4.70
2011,04,28,04,02,4.70
2011,04,28,04,03,4.70
2011,04,28,04,04,4.70
2011,04,28,04,05,4.70
2011,04,28,04,06,4.70
2011,04,28,04,07,4.70
2011,04,28,04,08,4.70
2011,04,28,04,09,4.70
2011,04,28,04,10,4.60
2011,04,28,04,11,4.60
2011,04,28,04,12,4.60
2011,04,28,04,13,4.60
2011,04,28,04,14,4.60
2011,04,28,04,15,4.60
2011,04,28,04,16,4.60
2011,04,28,04,17,4.60
2011,04,28,04,18,4.60
2011,04,28,04,19,4.60
2011,04,28,04,20,4.70
2011,04,28,04,21,4.70
2011,04,28,04,22,4.70
2011,04,28,04,23,4.80
2011,04,28,04,24,4.80
2011,04,28,04,25,4.90
2011,04,28,04,26,4.90
2011,04,28,04,27,4.90
2011,04,28,04,28,4.90
2011,04,28,04,29,4.90
2011,04,28,04,30,5.00
2011,04,28,04,31,5.10
2011,04,28,04,32,5.10
2011,04,28,04,33,5.10
2011,04,28,04,34,5.10
2011,04,28,04,35,5.00
2011,04,28,04,36,4.90
2011,04,28,04,37,4.90
2011,04,28,04,38,4.90
2011,04,28,04,39,4.90
2011,04,28,04,40,4.90
2011,04,28,04,41,4.80
2011,04,28,04,42,4.80
2011,04,28,04,43,4.70
2011,04,28,04,44,4.60
2011,04,28,04,45,4.60
2011,04,28,04,46,4.60
2011,04,28,04,47,4.50
2011,04,28,04,48,4.40
2011,04,28,04,49,4.40
2011,04,28,04,50,4.30
2011,04,28,04,51,4.20
2011,04,28,04,52,4.20
2011,04,28,04,53,4.10
2011,04,28,04,54,4.10
2011,04,28,04,55,4.10
2011,04,28,04,56,4.00
2011,04,28,04,57,4.00
2011,04,28,04,58,4.00
2011,04,28,04,59,4.00
2011,04,28,05,00,4.00
2011,04,28,05,01,4.00
2011,04,28,05,02,4.00
2011,04,28,05,03,4.00
2011,04,28,05,04,4.00
2011,04,28,05,05,4.00
2011,04,28,05,06,4.00
2011,04,28,05,07,4.00
2011,04,28,05,08,4.00
2011,04,28,05,09,4.00
2011,04,28,05,10,4.00
2011,04,28,05,11,4.10
2011,04,28,05,12,4.10
2011,04,28,05,13,4.10
2011,04,28,05,14,4.10
2011,04,28,05,15,4.10
2011,04,28,05,16,4.20
2011,04,28,05,17,4.20
2011,04,28,05,18,4.20
2011,04,28,05,19,4.20
2011,04,28,05,20,4.20
2011,04,28,05,21,4.20
2011,04,28,05,22,4.30
2011,04,28,05,23,4.30
2011,04,28,05,24,4.30
2011,04,28,05,25,4.40
2011,04,28,05,26,4.40
2011,04,28,05,27,4.40
2011,04,28,05,28,4.50
2011,04,28,05,29,4.50
2011,04,28,05,30,4.50
2011,04,28,05,31,4.50
2011,04,28,05,32,4.60
2011,04,28,05,33,4.60
2011,04,28,05,34,4.60
2011,04,28,05,35,4.60
2011,04,28,05,36,4.60
2011,04,28,05,37,4.60
2011,04,28,05,38,4.70
2011,04,28,05,39,4.70
2011,04,28,05,40,4.70
2011,04,28,05,41,4.80
2011,04,28,05,42,4.80
2011,04,28,05,43,4.80
2011,04,28,05,44,4.90
2011,04,28,05,45,4.90
2011,04,28,05,46,4.90
2011,04,28,05,47,4.90
2011,04,28,05,48,4.90
2011,04,28,05,49,4.90
2011,04,28,05,50,4.90
2011,04,28,05,51,5.00
2011,04,28,05,52,5.10
2011,04,28,05,53,5.10
2011,04,28,05,54,5.10
2011,04,28,05,55,5.10
2011,04,28,05,56,5.10
2011,04,28,05,57,5.10
2011,04,28,05,58,5.10
2011,04,28,05,59,5.10
2011,04,28,06,00,5.10
2011,04,28,06,01,5.10
2011,04,28,06,02,5.20
2011,04,28,06,03,5.20
2011,04,28,06,04,5.20
2011,04,28,06,05,5.20
2011,04,28,06,06,5.20
2011,04,28,06,07,5.20
2011,04,28,06,08,5.20
2011,04,28,06,09,5.30
2011,04,28,06,10,5.30
2011,04,28,06,11,5.30
2011,04,28,06,12,5.30
2011,04,28,06,13,5.30
2011,04,28,06,14,5.30
2011,04,28,06,15,5.30
2011,04,28,06,16,5.30
2011,04,28,06,17,5.30
2011,04,28,06,18,5.30
2011,04,28,06,19,5.30
2011,04,28,06,20,5.30
2011,04,28,06,21,5.30
2011,04,28,06,22,5.30
2011,04,28,06,23,5.30
2011,04,28,06,24,5.30
2011,04,28,06,25,5.30
2011,04,28,06,26,5.30
2011,04,28,06,27,5.30
2011,04,28,06,28,5.30
2011,04,28,06,29,5.30
2011,04,28,06,30,5.30
2011,04,28,06,31,5.30
2011,04,28,06,32,5.30
2011,04,28,06,33,5.30
2011,04,28,06,34,5.30
2011,04,28,06,35,5.30
2011,04,28,06,36,5.30
2011,04,28,06,37,5.30
2011,04,28,06,38,5.30
2011,04,28,06,39,5.30
2011,04,28,06,40,5.30
2011,04,28,06,41,5.40
2011,04,28,06,42,5.40
2011,04,28,06,43,5.40
2011,04,28,06,44,5.40
2011,04,28,06,45,5.50
2011,04,28,06,46,5.50
2011,04,28,06,47,5.50
2011,04,28,06,48,5.60
2011,04,28,06,49,5.60
2011,04,28,06,50,5.60
2011,04,28,06,51,5.60
2011,04,28,06,52,5.70
2011,04,28,06,53,5.70
2011,04,28,06,54,5.70
2011,04,28,06,55,5.70
2011,04,28,06,56,5.70
2011,04,28,06,57,5.70
2011,04,28,06,58,5.80
2011,04,28,06,59,5.80
2011,04,28,07,00,5.80
2011,04,28,07,01,5.70
2011,04,28,07,02,5.70
2011,04,28,07,03,5.70
2011,04,28,07,04,5.70
2011,04,28,07,05,5.70
2011,04,28,07,06,5.70
2011,04,28,07,07,5.70
2011,04,28,07,08,5.70
2011,04,28,07,09,5.70
2011,04,28,07,10,5.70
2011,04,28,07,11,5.70
2011,04,28,07,12,5.70
2011,04,28,07,13,5.70
2011,04,28,07,14,5.70
2011,04,28,07,15,5.70
2011,04,28,07,16,5.70
2011,04,28,07,17,5.70
2011,04,28,07,18,5.70
2011,04,28,07,19,5.70
2011,04,28,07,20,5.80
2011,04,28,07,21,5.80
2011,04,28,07,22,5.80
2011,04,28,07,23,5.80
2011,04,28,07,24,5.80
2011,04,28,07,25,5.80
2011,04,28,07,26,5.80
2011,04,28,07,27,5.80
2011,04,28,07,28,5.80
2011,04,28,07,29,5.80
2011,04,28,07,30,5.90
2011,04,28,07,31,5.90
2011,04,28,07,32,5.90
2011,04,28,07,33,5.90
2011,04,28,07,34,5.90
2011,04,28,07,35,5.90
2011,04,28,07,36,5.90
2011,04,28,07,37,6.00
2011,04,28,07,38,6.00
2011,04,28,07,39,6.00
2011,04,28,07,40,6.00
2011,04,28,07,41,6.00
2011,04,28,07,42,6.00
2011,04,28,07,43,6.00
2011,04,28,07,44,6.10
2011,04,28,07,45,6.10
2011,04,28,07,46,6.10
2011,04,28,07,47,6.10
2011,04,28,07,48,6.10
2011,04,28,07,49,6.10
2011,04,28,07,50,6.10
2011,04,28,07,51,6.10
2011,04,28,07,52,6.10
2011,04,28,07,53,6.10
2011,04,28,07,54,6.10
2011,04,28,07,55,6.20
2011,04,28,07,56,6.10
2011,04,28,07,57,6.10
2011,04,28,07,58,6.20
2011,04,28,07,59,6.20
2011,04,28,08,00,6.20
2011,04,28,08,01,6.20
2011,04,28,08,02,6.20
2011,04,28,08,03,6.20
2011,04,28,08,04,6.20
2011,04,28,08,05,6.20
2011,04,28,08,06,6.20
2011,04,28,08,07,6.20
2011,04,28,08,08,6.20
2011,04,28,08,09,6.20
2011,04,28,08,10,6.20
2011,04,28,08,11,6.20
2011,04,28,08,12,6.20
2011,04,28,08,13,6.30
2011,04,28,08,14,6.30
2011,04,28,08,15,6.30
2011,04,28,08,16,6.30
2011,04,28,08,17,6.40
2011,04,28,08,18,6.40
2011,04,28,08,19,6.40
2011,04,28,08,20,6.40
2011,04,28,08,21,6.40
2011,04,28,08,22,6.40
2011,04,28,08,23,6.40
2011,04,28,08,24,6.40
2011,04,28,08,25,6.40
2011,04,28,08,26,6.40
2011,04,28,08,27,6.40
2011,04,28,08,28,6.40
2011,04,28,08,29,6.40
2011,04,28,08,30,6.40
2011,04,28,08,31,6.40
2011,04,28,08,32,6.40
2011,04,28,08,33,6.40
2011,04,28,08,34,6.30
2011,04,28,08,35,6.20
2011,04,28,08,36,6.20
2011,04,28,08,37,6.20
2011,04,28,08,38,6.20
2011,04,28,08,39,6.20
2011,04,28,08,40,6.20
2011,04,28,08,41,6.10
2011,04,28,08,42,6.10
2011,04,28,08,43,6.10
2011,04,28,08,44,6.10
2011,04,28,08,45,6.10
2011,04,28,08,46,6.20
2011,04,28,08,47,6.20
2011,04,28,08,48,6.20
2011,04,28,08,49,6.20
2011,04,28,08,50,6.30
2011,04,28,08,51,6.30
2011,04,28,08,52,6.30
2011,04,28,08,53,6.30
2011,04,28,08,54,6.30
2011,04,28,08,55,6.30
2011,04,28,08,56,6.40
2011,04,28,08,57,6.40
2011,04,28,08,58,6.40
2011,04,28,08,59,6.40
2011,04,28,09,00,6.40
2011,04,28,09,01,6.40
2011,04,28,09,02,6.50
2011,04,28,09,03,6.60
2011,04,28,09,04,6.60
2011,04,28,09,05,6.60
2011,04,28,09,06,6.60
2011,04,28,09,07,6.60
2011,04,28,09,08,6.60
2011,04,28,09,09,6.70
2011,04,28,09,10,6.70
2011,04,28,09,11,6.70
2011,04,28,09,12,6.80
2011,04,28,09,13,6.80
2011,04,28,09,14,6.80
2011,04,28,09,15,6.80
2011,04,28,09,16,6.80
2011,04,28,09,17,6.80
2011,04,28,09,18,6.80
2011,04,28,09,19,6.80
2011,04,28,09,20,6.80
2011,04,28,09,21,6.80
2011,04,28,09,22,6.80
2011,04,28,09,23,6.80
2011,04,28,09,24,6.80
2011,04,28,09,25,6.80
2011,04,28,09,26,6.80
2011,04,28,09,27,6.90
2011,04,28,09,28,6.90
2011,04,28,09,29,6.90
2011,04,28,09,30,6.90
2011,04,28,09,31,6.90
2011,04,28,09,32,6.90
2011,04,28,09,33,7.00
2011,04,28,09,34,7.00
2011,04,28,09,35,7.10
2011,04,28,09,36,7.10
2011,04,28,09,37,7.10
2011,04,28,09,38,7.20
2011,04,28,09,39,7.30
2011,04,28,09,40,7.30
2011,04,28,09,41,7.30
2011,04,28,09,42,7.30
2011,04,28,09,43,7.30
2011,04,28,09,44,7.30
2011,04,28,09,45,7.30
2011,04,28,09,46,7.40
2011,04,28,09,47,7.40
2011,04,28,09,48,7.40
2011,04,28,09,49,7.40
2011,04,28,09,50,7.40
2011,04,28,09,51,7.50
2011,04,28,09,52,7.50
2011,04,28,09,53,7.50
2011,04,28,09,54,7.60
2011,04,28,09,55,7.60
2011,04,28,09,56,7.60
2011,04,28,09,57,7.60
2011,04,28,09,58,7.60
2011,04,28,09,59,7.70
2011,04,28,10,00,7.70
2011,04,28,10,01,7.60
2011,04,28,10,02,7.50
2011,04,28,10,03,7.50
2011,04,28,10,04,7.40
2011,04,28,10,05,7.40
2011,04,28,10,06,7.40
2011,04,28,10,07,7.40
2011,04,28,10,08,7.40
2011,04,28,10,09,7.30
2011,04,28,10,10,7.20
2011,04,28,10,11,7.20
2011,04,28,10,12,7.20
2011,04,28,10,13,7.20
2011,04,28,10,14,7.10
2011,04,28,10,15,7.10
2011,04,28,10,16,7.10
2011,04,28,10,17,7.20
2011,04,28,10,18,7.20
2011,04,28,10,19,7.20
2011,04,28,10,20,7.20
2011,04,28,10,21,7.40
2011,04,28,10,22,7.50
2011,04,28,10,23,7.70
2011,04,28,10,24,7.80
2011,04,28,10,25,7.90
2011,04,28,10,26,8.00
2011,04,28,10,27,8.10
2011,04,28,10,28,8.20
2011,04,28,10,29,8.30
2011,04,28,10,30,8.40
2011,04,28,10,31,8.40
2011,04,28,10,32,8.30
2011,04,28,10,33,8.20
2011,04,28,10,34,8.20
2011,04,28,10,35,8.20
2011,04,28,10,36,8.20
2011,04,28,10,37,8.40
2011,04,28,10,38,8.30
2011,04,28,10,39,8.20
2011,04,28,10,40,8.20
2011,04,28,10,41,8.20
2011,04,28,10,42,8.20
2011,04,28,10,43,8.20
2011,04,28,10,44,8.20
2011,04,28,10,45,8.30
2011,04,28,10,46,8.40
2011,04,28,10,47,8.30
2011,04,28,10,48,8.40
2011,04,28,10,49,8.40
2011,04,28,10,50,8.30
2011,04,28,10,51,8.30
2011,04,28,10,52,8.40
2011,04,28,10,53,8.50
2011,04,28,10,54,8.60
2011,04,28,10,55,8.60
2011,04,28,10,56,8.60
2011,04,28,10,57,8.50
2011,04,28,10,58,8.40
2011,04,28,10,59,8.40
2011,04,28,11,00,8.40
2011,04,28,11,01,8.50
2011,04,28,11,02,8.60
2011,04,28,11,03,8.70
2011,04,28,11,04,8.60
2011,04,28,11,05,8.60
2011,04,28,11,06,8.60
2011,04,28,11,07,8.60
2011,04,28,11,08,8.60
2011,04,28,11,09,8.50
2011,04,28,11,10,8.50
2011,04,28,11,11,8.50
2011,04,28,11,12,8.50
2011,04,28,11,13,8.60
2011,04,28,11,14,8.70
2011,04,28,11,15,8.80
2011,04,28,11,16,8.90
2011,04,28,11,17,9.00
2011,04,28,11,18,8.90
2011,04,28,11,19,8.90
2011,04,28,11,20,8.90
2011,04,28,11,21,8.90
2011,04,28,11,22,8.90
2011,04,28,11,23,9.00
2011,04,28,11,24,9.10
2011,04,28,11,25,9.10
2011,04,28,11,26,8.90
2011,04,28,11,27,8.80
2011,04,28,11,28,8.70
2011,04,28,11,29,8.70
2011,04,28,11,30,8.90
2011,04,28,11,31,9.10
2011,04,28,11,32,9.20
2011,04,28,11,33,9.30
2011,04,28,11,34,9.10
2011,04,28,11,35,8.90
2011,04,28,11,36,8.70
2011,04,28,11,37,8.50
2011,04,28,11,38,8.50
2011,04,28,11,39,8.50
2011,04,28,11,40,8.60
2011,04,28,11,41,8.40
2011,04,28,11,42,8.20
2011,04,28,11,43,8.20
2011,04,28,11,44,8.40
2011,04,28,11,45,8.50
2011,04,28,11,46,8.50
2011,04,28,11,47,8.40
2011,04,28,11,48,8.40
2011,04,28,11,49,8.50
2011,04,28,11,50,8.50
2011,04,28,11,51,8.50
2011,04,28,11,52,8.60
2011,04,28,11,53,8.80
2011,04,28,11,54,8.80
2011,04,28,11,55,8.80
2011,04,28,11,56,8.90
2011,04,28,11,57,9.00
2011,04,28,11,58,9.00
2011,04,28,11,59,8.90
2011,04,28,12,00,9.00
2011,04,28,12,01,9.00
2011,04,28,12,02,8.90
2011,04,28,12,03,8.80
2011,04,28,12,04,8.70
2011,04,28,12,05,8.60
2011,04,28,12,06,8.50
2011,04,28,12,07,8.40
2011,04,28,12,08,8.50
2011,04,28,12,09,8.60
2011,04,28,12,10,8.70
2011,04,28,12,11,8.60
2011,04,28,12,12,8.60
2011,04,28,12,13,8.50
2011,04,28,12,14,8.50
2011,04,28,12,15,8.60
2011,04,28,12,16,8.60
2011,04,28,12,17,8.50
2011,04,28,12,18,8.40
2011,04,28,12,19,8.60
2011,04,28,12,20,8.50
2011,04,28,12,21,8.40
2011,04,28,12,22,8.40
2011,04,28,12,23,8.40
2011,04,28,12,24,8.40
2011,04,28,12,25,8.40
2011,04,28,12,26,8.50
2011,04,28,12,27,8.50
2011,04,28,12,28,8.60
2011,04,28,12,29,8.50
2011,04,28,12,30,8.50
2011,04,28,12,31,8.50
2011,04,28,12,32,8.70
2011,04,28,12,33,8.70
2011,04,28,12,34,8.80
2011,04,28,12,35,8.90
2011,04,28,12,36,8.90
2011,04,28,12,37,8.80
2011,04,28,12,38,8.70
2011,04,28,12,39,8.50
2011,04,28,12,40,8.40
2011,04,28,12,41,8.40
2011,04,28,12,42,8.40
2011,04,28,12,43,8.40
2011,04,28,12,44,8.50
2011,04,28,12,45,8.40
2011,04,28,12,46,8.40
2011,04,28,12,47,8.40
2011,04,28,12,48,8.50
2011,04,28,12,49,8.50
2011,04,28,12,50,8.50
2011,04,28,12,51,8.50
2011,04,28,12,52,8.60
2011,04,28,12,53,8.70
2011,04,28,12,54,8.80
2011,04,28,12,55,8.80
2011,04,28,12,56,8.90
2011,04,28,12,57,9.00
2011,04,28,12,58,9.20
2011,04,28,12,59,9.20
2011,04,28,13,00,9.10
2011,04,28,13,01,9.20
2011,04,28,13,02,9.20
2011,04,28,13,03,9.20
2011,04,28,13,04,9.20
2011,04,28,13,05,9.20
2011,04,28,13,06,9.20
2011,04,28,13,07,9.10
2011,04,28,13,08,9.00
2011,04,28,13,09,8.90
2011,04,28,13,10,8.90
2011,04,28,13,11,8.80
2011,04,28,13,12,8.80
2011,04,28,13,13,8.90
2011,04,28,13,14,8.90
2011,04,28,13,15,9.10
2011,04,28,13,16,9.20
2011,04,28,13,17,9.20
2011,04,28,13,18,9.20
2011,04,28,13,19,9.20
2011,04,28,13,20,9.10
2011,04,28,13,21,9.00
2011,04,28,13,22,8.90
2011,04,28,13,23,8.80
2011,04,28,13,24,8.70
2011,04,28,13,25,8.80
2011,04,28,13,26,9.00
2011,04,28,13,27,9.00
2011,04,28,13,28,9.00
2011,04,28,13,29,9.00
2011,04,28,13,30,8.90
2011,04,28,13,31,8.90
2011,04,28,13,32,9.00
2011,04,28,13,33,9.00
2011,04,28,13,34,9.10
2011,04,28,13,35,9.20
2011,04,28,13,36,9.20
2011,04,28,13,37,9.00
2011,04,28,13,38,9.00
2011,04,28,13,39,9.00
2011,04,28,13,40,9.10
2011,04,28,13,41,9.10
2011,04,28,13,42,9.10
2011,04,28,13,43,9.20
2011,04,28,13,44,9.20
2011,04,28,13,45,9.20
2011,04,28,13,46,9.10
2011,04,28,13,47,9.00
2011,04,28,13,48,8.80
2011,04,28,13,49,8.70
2011,04,28,13,50,8.70
2011,04,28,13,51,8.70
2011,04,28,13,52,8.70
2011,04,28,13,53,8.80
2011,04,28,13,54,9.00
2011,04,28,13,55,9.00
2011,04,28,13,56,9.10
2011,04,28,13,57,9.30
2011,04,28,13,58,9.40
2011,04,28,13,59,9.40
2011,04,28,14,00,9.30
2011,04,28,14,01,9.20
2011,04,28,14,02,9.20
2011,04,28,14,03,9.20
2011,04,28,14,04,9.20
2011,04,28,14,05,9.20
2011,04,28,14,06,9.20
2011,04,28,14,07,9.30
2011,04,28,14,08,9.20
2011,04,28,14,09,9.00
2011,04,28,14,10,9.00
2011,04,28,14,11,9.20
2011,04,28,14,12,9.20
2011,04,28,14,13,9.20
2011,04,28,14,14,9.10
2011,04,28,14,15,9.10
2011,04,28,14,16,9.30
2011,04,28,14,17,9.40
2011,04,28,14,18,9.50
2011,04,28,14,19,9.50
2011,04,28,14,20,9.40
2011,04,28,14,21,9.40
2011,04,28,14,22,9.40
2011,04,28,14,23,9.30
2011,04,28,14,24,9.20
2011,04,28,14,25,9.20
2011,04,28,14,26,9.20
2011,04,28,14,27,9.30
2011,04,28,14,28,9.40
2011,04,28,14,29,9.60
2011,04,28,14,30,9.70
2011,04,28,14,31,9.70
2011,04,28,14,32,9.70
2011,04,28,14,33,9.60
2011,04,28,14,34,9.50
2011,04,28,14,35,9.50
2011,04,28,14,36,9.60
2011,04,28,14,37,9.50
2011,04,28,14,38,9.40
2011,04,28,14,39,9.30
2011,04,28,14,40,9.20
2011,04,28,14,41,9.30
2011,04,28,14,42,9.30
2011,04,28,14,43,9.20
2011,04,28,14,44,9.10
2011,04,28,14,45,9.20
2011,04,28,14,46,9.30
2011,04,28,14,47,9.40
2011,04,28,14,48,9.40
2011,04,28,14,49,9.30
2011,04,28,14,50,9.20
2011,04,28,14,51,9.40
2011,04,28,14,52,9.50
2011,04,28,14,53,9.70
2011,04,28,14,54,9.80
2011,04,28,14,55,9.90
2011,04,28,14,56,10.00
2011,04,28,14,57,10.10
2011,04,28,14,58,10.20
2011,04,28,14,59,10.20
2011,04,28,15,00,10.20
2011,04,28,15,01,10.40
2011,04,28,15,02,10.40
2011,04,28,15,03,10.40
2011,04,28,15,04,10.40
2011,04,28,15,05,10.20
2011,04,28,15,06,9.90
2011,04,28,15,07,9.50
2011,04,28,15,08,9.20
2011,04,28,15,09,9.00
2011,04,28,15,10,9.00
2011,04,28,15,11,9.00
2011,04,28,15,12,9.00
2011,04,28,15,13,9.00
2011,04,28,15,14,9.00
2011,04,28,15,15,9.10
2011,04,28,15,16,9.20
2011,04,28,15,17,9.30
2011,04,28,15,18,9.50
2011,04,28,15,19,9.70
2011,04,28,15,20,9.90
2011,04,28,15,21,10.00
2011,04,28,15,22,9.90
2011,04,28,15,23,9.90
2011,04,28,15,24,9.90
2011,04,28,15,25,9.70
2011,04,28,15,26,9.70
2011,04,28,15,27,9.80
2011,04,28,15,28,9.70
2011,04,28,15,29,9.70
2011,04,28,15,30,9.70
2011,04,28,15,31,9.70
2011,04,28,15,32,9.50
2011,04,28,15,33,9.40
2011,04,28,15,34,9.30
2011,04,28,15,35,9.40
2011,04,28,15,36,9.50
2011,04,28,15,37,9.60
2011,04,28,15,38,9.70
2011,04,28,15,39,9.80
2011,04,28,15,40,9.90
2011,04,28,15,41,9.90
2011,04,28,15,42,9.90
2011,04,28,15,43,9.90
2011,04,28,15,44,9.90
2011,04,28,15,45,9.90
2011,04,28,15,46,9.90
2011,04,28,15,47,9.90
2011,04,28,15,48,10.00
2011,04,28,15,49,10.10
2011,04,28,15,50,10.10
2011,04,28,15,51,10.20
2011,04,28,15,52,10.20
2011,04,28,15,53,10.30
2011,04,28,15,54,10.40
2011,04,28,15,55,10.20
2011,04,28,15,56,10.10
2011,04,28,15,57,10.20
2011,04,28,15,58,10.10
2011,04,28,15,59,10.00
2011,04,28,16,00,9.90
2011,04,28,16,01,9.70
2011,04,28,16,02,9.70
2011,04,28,16,03,9.70
2011,04,28,16,04,9.60
2011,04,28,16,05,9.50
2011,04,28,16,06,9.50
2011,04,28,16,07,9.60
2011,04,28,16,08,9.60
2011,04,28,16,09,9.70
2011,04,28,16,10,9.70
2011,04,28,16,11,9.70
2011,04,28,16,12,9.70
2011,04,28,16,13,9.70
2011,04,28,16,14,9.70
2011,04,28,16,15,9.80
2011,04,28,16,16,10.00
2011,04,28,16,17,10.20
2011,04,28,16,18,10.30
2011,04,28,16,19,10.40
2011,04,28,16,20,10.50
2011,04,28,16,21,10.60
2011,04,28,16,22,10.70
2011,04,28,16,23,10.60
2011,04,28,16,24,10.60
2011,04,28,16,25,10.60
2011,04,28,16,26,10.60
2011,04,28,16,27,10.50
2011,04,28,16,28,10.40
2011,04,28,16,29,10.40
2011,04,28,16,30,10.40
2011,04,28,16,31,10.50
2011,04,28,16,32,10.60
2011,04,28,16,33,10.70
2011,04,28,16,34,10.60
2011,04,28,16,35,10.60
2011,04,28,16,36,10.50
2011,04,28,16,37,10.40
2011,04,28,16,38,10.30
2011,04,28,16,39,10.20
2011,04,28,16,40,10.20
2011,04,28,16,41,10.30
2011,04,28,16,42,10.30
2011,04,28,16,43,10.30
2011,04,28,16,44,10.20
2011,04,28,16,45,10.10
2011,04,28,16,46,9.90
2011,04,28,16,47,9.90
2011,04,28,16,48,9.80
2011,04,28,16,49,9.80
2011,04,28,16,50,9.90
2011,04,28,16,51,9.90
2011,04,28,16,52,9.90
2011,04,28,16,53,10.00
2011,04,28,16,54,10.10
2011,04,28,16,55,10.10
2011,04,28,16,56,10.10
2011,04,28,16,57,10.10
2011,04,28,16,58,10.10
2011,04,28,16,59,10.10
2011,04,28,17,00,10.10
2011,04,28,17,01,10.20
2011,04,28,17,02,10.20
2011,04,28,17,03,10.20
2011,04,28,17,04,10.20
2011,04,28,17,05,10.30
2011,04,28,17,06,10.40
2011,04,28,17,07,10.50
2011,04,28,17,08,10.60
2011,04,28,17,09,10.50
2011,04,28,17,10,10.40
2011,04,28,17,11,10.40
2011,04,28,17,12,10.40
2011,04,28,17,13,10.40
2011,04,28,17,14,10.40
2011,04,28,17,15,10.40
2011,04,28,17,16,10.40
2011,04,28,17,17,10.40
2011,04,28,17,18,10.40
2011,04,28,17,19,10.40
2011,04,28,17,20,10.40
2011,04,28,17,21,10.40
2011,04,28,17,22,10.40
2011,04,28,17,23,10.30
2011,04,28,17,24,10.30
2011,04,28,17,25,10.30
2011,04,28,17,26,10.40
2011,04,28,17,27,10.40
2011,04,28,17,28,10.30
2011,04,28,17,29,10.30
2011,04,28,17,30,10.30
2011,04,28,17,31,10.40
2011,04,28,17,32,10.40
2011,04,28,17,33,10.40
2011,04,28,17,34,10.40
2011,04,28,17,35,10.40
2011,04,28,17,36,10.40
2011,04,28,17,37,10.40
2011,04,28,17,38,10.40
2011,04,28,17,39,10.40
2011,04,28,17,40,10.30
2011,04,28,17,41,10.20
2011,04,28,17,42,10.20
2011,04,28,17,43,10.20
2011,04,28,17,44,10.20
2011,04,28,17,45,10.30
2011,04,28,17,46,10.30
2011,04,28,17,47,10.10
2011,04,28,17,48,10.10
2011,04,28,17,49,10.10
2011,04,28,17,50,10.20
2011,04,28,17,51,10.20
2011,04,28,17,52,10.20
2011,04,28,17,53,10.20
2011,04,28,17,54,10.20
2011,04,28,17,55,10.10
2011,04,28,17,56,10.10
2011,04,28,17,57,10.20
2011,04,28,17,58,10.20
2011,04,28,17,59,10.10
2011,04,28,18,00,10.10
2011,04,28,18,01,10.10